Regional Weather Roundup
Issued by NWS

Home | Current Version | Previous Version | Text Only | Print | Product List | Glossary Off
Versions: 1 2 3 4 5 6 7 8 9 10 11 12 13 14 15 16 17 18 19 20 21 22 23 24 25 26 27 28

000
ASUS45 KBOU 270410
RWRCO

WEATHER ROUNDUP FOR COLORADO
NATIONAL WEATHER SERVICE DENVER/BOULDER CO
1000 PM MDT SAT MAY 26 2018

NOTE: "FAIR" INDICATES FEW OR NO CLOUDS BELOW 12000 FEET WITH NO
SIGNIFICANT WEATHER AND/OR OBSTRUCTIONS TO VISIBILITY.

COZ001>005-013-030-031-270500-
...NORTHWEST COLORADO...

CITY           SKY/WX    TMP DP  RH WIND       PRES   REMARKS
CRAIG          FAIR      70  29  21 S15       29.88R
HAYDEN         FAIR      68  29  23 E5        29.91R
MEEKER         MOCLDY    67  31  26 VRB3      29.90R
RANGELY        FAIR      76  18  11 E9        29.76S
RABBIT EARS PA FAIR      52  19  28 S7        30.20R
STEAMBOAT SPGS FAIR      63  27  25 NE7       29.93R
WALDEN         FAIR      52  28  40 SE7       30.02S
$$

COZ006>008-011-270500-
...WEST CENTRAL VALLEYS...

CITY           SKY/WX    TMP DP  RH WIND       PRES   REMARKS
GRAND JUNCTION FAIR      82  18   9 S22G29    29.75R
MONTROSE       FAIR      74  20  13 W8        29.87R
EAGLE          FAIR      67  20  16 CALM      29.93R
RIFLE          FAIR      74  27  17 W8        29.82R
DELTA          FAIR      80  23  12 SW23G40   29.83R
NUCLA          FAIR      73  19  13 S12G17    29.89F
$$

COZ017>023-064>068-270500-
...SOUTHWEST COLORADO...

CITY           SKY/WX    TMP DP  RH WIND       PRES   REMARKS
DURANGO        FAIR      70  14  11 SW14      29.97R
CORTEZ         FAIR      70  14  11 SW17      29.91R
PAGOSA SPRINGS FAIR      62  12  14 NE8       30.04F
TELLURIDE      CLOUDY    61  23  23 SE20G44   30.16R
WOLF CREEK PAS MOCLDY    46  14  27 S16G26    30.37S
$$

COZ009-010-012-014-032>034-037-058>063-270500-
...CENTRAL COLORADO...

CITY           SKY/WX    TMP DP  RH WIND       PRES   REMARKS
ASPEN          FAIR      57  22  25 S7        30.00R
BUENA VISTA    FAIR      61  12  14 SE8       30.07R
COPPER MTN     FAIR      54  14  20 SE15G21   30.33S
BERTHOUD PASS  FAIR      45  32  61 S21G29    30.38R
COTTONWOOD PAS FAIR      64   3   9 CALM      30.21R
GUNNISON       FAIR      59  17  19 S9        30.03R
GRANBY         FAIR      54  26  33 E3        30.06R
KREMMLING      FAIR      63  21  20 E3        29.99R
LEADVILLE      FAIR      51  15  23 SW5       30.18R
MONARCH PASS   FAIR      46  10  23 MISG      30.46R
SALIDA         FAIR      67  12  12 SW6       30.11R
SUNLIGHT       MOCLDY    48  21  34 S7G22     30.23F
WILKERSON PASS MOCLDY    52   7  16 SW16G23   30.32S
$$

COZ069>075-270500-
...SAN LUIS VALLEY/SANGRE DE CRISTO MOUNTAINS...

CITY           SKY/WX    TMP DP  RH WIND       PRES   REMARKS
ALAMOSA        FAIR      55  25  31 S8        30.04S
DEL NORTE      FAIR      60  16  18 SW5       30.08R
LA VETA PASS   FAIR      57  10  15 S17G23    30.36S
SAGUACHE       NOT AVBL
$$

COZ035-036-038>040-270500-
...NORTHERN COLORADO FRONT RANGE...

CITY           SKY/WX    TMP DP  RH WIND       PRES   REMARKS
DENVER INTL AP MOCLDY    71  29  21 S8        29.83R
AURORA         NOT AVBL
FRONT RANGE AP FAIR      73  32  22 S9        29.84R
ERIE MUNI ARPT FAIR      66  47  51 CALM      29.85R
BOULDER MUN AP FAIR      72  32  23 CALM      29.81R
CENTENNIAL     MOCLDY    75  20  12 S8        29.87R
BROOMFIELD     CLOUDY    73  39  29 CALM      29.82F
FORT COLLINS   FAIR      69  54  58 SW5       29.79R
LONGMONT       FAIR      66  49  54 W5        29.81R
$$

COZ041-046-047-076>085-087-088-270500-
...PIKES PEAK/PALMER DIVIDE AND SOUTHERN FOOTHILLS...

CITY           SKY/WX    TMP DP  RH WIND       PRES   REMARKS
COLO. SPRINGS  CLOUDY    75  13   9 SW10      29.92R
A. F. ACADEMY  NOT AVBL
SCHRIEVER AFB  NOT AVBL
CHEYENNE MTN   NOT AVBL
ELLICOTT         N/A    N/A N/A N/A S9        29.93R
FALCON         FAIR      67  13  12 SW7       29.98S
FORT CARSON    NOT AVBL
LIMON          FAIR      70  35  27 SE14      29.89R
MONUMENT HILL  FAIR      64  16  15 SW8       30.00R
CANON CITY     CLEAR     75  19  12 CALM      29.86R
WALSENBURG     FAIR      72  16  12 S10       29.94R
TRINIDAD       FAIR      70  25  18 S12       29.93S
$$

COZ042>045-048>051-090-091-270500-
...NORTHEAST COLORADO...

CITY           SKY/WX    TMP DP  RH WIND       PRES   REMARKS
GREELEY ARPT   FAIR      67  53  61 S5        29.77R
AKRON          FAIR      74  44  34 SE24G35   29.82R
BURLINGTON     FAIR      74  45  35 SE18G26   29.87R
WRAY           FAIR      79  41  25 SE20G26   29.81R
YUMA           FAIR      73  14  10 SE20      29.82R
STERLING       FAIR      79  43  27 SE22G29   29.75S
HOLYOKE        FAIR      77  43  29 SE14      29.81S
FORT MORGAN    FAIR      78  36  22 SE23G29   29.78S
$$

COZ086-089-092>099-270500-
...SOUTHEAST COLORADO...

CITY           SKY/WX    TMP DP  RH WIND       PRES   REMARKS
PUEBLO         FAIR      75  19  12 W3        29.81R
LA JUNTA       FAIR      80  33  18 SE9       29.81R
LAMAR          FAIR      80  51  36 S17G28    29.80R
SPRINGFIELD      N/A     75  56  51 SE20G29   29.89R
$$




USA.gov is the U.S. government's official web portal to all federal, state and local government web resources and services.